Starlink 4701

operational
NORAD ID: 53727 Int'l Des: 2022-107 Owner: SPXS Country: US Constellation: starlink
LEOCIRCULAR

About Starlink 4701

Description loading...

Live Position

Loading 3D Globe...

Upcoming Passes

Altitude History

Altitude vs Time

uPlot chart will show altitude changes over time

Two-Line Element Set

1 53727U 22107AD 26061.60170136 .00000506 00000-0 49900-4 0 9992
2 53727 53.2168 285.9360 0001380 87.9691 272.1459 15.08836756193480
Epoch: Mar 2, 2026 • Age: 41 hours

Current Status

Altitude 553.3 km
Velocity 7.58 km/s
Sub-Earth Point -39.08°S, 83.16°E
Launch Date Sep 5, 2022
Age 3.4 years
Type internet

Technical Details

Classification Payload
Mass 305.00 kg
Dry Mass 290.00 kg
Total Mass 305.00 kg
Length 0.20 m
Diameter 2.80 m
Span 9.00 m
Shape Box + pan
Manufacturer SPXS
Bus Type Starlink
Phase Status In Orbit
Owner/State SPXS/US

Large Constellations

Loading constellations...